www.pogodaiklimat.ru

Погода и климат >> Архив погоды >> Россия >> Мурманская область >> Мурманск


АРХИВ ПОГОДЫ в Мурманске

Время (UTC), дата Ветер
(напр.,м/с)
 
Видим.   Явления Облачность Т
(С)
Тd
(С)
f
(%)
Тe
(С)
Тes
(С)
Комфортность P
(гПа)
Po
(гПа)
Тmin
(С)
Tmax
(С)
R
(мм)
R24
(мм)
S
(см)
00 20.03 ЮЗ 3 10 км {ливн. осадки} 8/6 1000 м
[Sc Ac trans]
-3.8 -8.2 71 -9 -9 по сезону 1009.7 1003.3
03 20.03 Ю 2 10 км 9/8 1000 м
[Sc Ac trans]
-5.3 -8.4 79 -9 -9 по сезону 1009.4 1002.9 -5.5 0.0
06 20.03 Ю 4 20 км 3/0
[Ac trans Ci fib]
-7.6 -9.5 86 -14 -14 по сезону 1008.4 1001.9 -8.1 0.0 41
09 20.03 Ю 4 20 км 3/0
[Ci fib]
-4.0 -8.0 74 -10 -8 по сезону 1007.1 1000.7
12 20.03 Ю 6-10
{11}
20 км {метель} 3/3 600 м
[Sc]
-1.2 -6.3 68 -8 -7 по сезону 1005.8 999.5
15 20.03 ЮЗ 4-6
{11}
20 км {метель} 3/3 1000 м
[Sc Ci fib]
-0.9 -6.2 67 -6 -6 по сезону 1005.2 998.9
18 20.03 Ю 4 10 км {метель} 3/0
[Ac lent]
-3.4 -7.0 76 -9 -9 по сезону 1004.9 998.5 -0.4
21 20.03 Ю 5 10 км 4/0
[Ac trans]
-5.0 -7.9 80 -12 -12 по сезону 1004.3 997.9
00 21.03 Ю 5 10 км 8/0
[Ac trans]
-6.8 -8.9 85 -14 -14 по сезону 1003.9 997.4
03 21.03 Ю 4 4000 м слаб. ливневой снег {метель} 10/10 600 м
[Cb cap]
-6.0 -7.4 90 -13 -13 по сезону 1002.9 996.5 -7.2 0.3
06 21.03 Ю 5 4000 м слаб. ливневой снег {метель} 10/10 600 м
[Cb cap]
-3.8 -4.6 94 -11 -11 по сезону 1002.1 995.7 -7.2 1 41
09 21.03 ЮЗ 4 20 км {ливн. осадки, метель} 9/8 600 м
[Sc Ac trans Ci fib]
-0.8 -3.7 81 -6 -6 по сезону 1002.1 995.8
12 21.03 Ю 5-7
{10}
50 км {ливн. осадки, метель} 5/3 600 м
[Cu hum Ci sp]
+0.7 -3.3 75 -5 -4 по сезону 1000.6 994.3
15 21.03 Ю 5 20 км 3/3 600 м
[Sc]
+0.4 -3.9 73 -5 -5 по сезону 999.3 993.0 0.9
18 21.03 Ю 6 10 км 9/8 600 м
[Sc Ac lent]
-0.4 -3.9 77 -7 -7 по сезону 998.6 992.3 +1.6 0.0
21 21.03 ЮЗ 2 10 км 10/8 600 м
[Sc As trans]
-1.0 -4.1 79 -5 -5 по сезону 999.2 992.9
00 22.03 СЗ 3 10 км 8/8 300 м
[St]
-2.0 -4.7 82 -7 -7 по сезону 1001.2 994.9
03 22.03 С 1-2
{10}
10 км 9/9 1000 м
[Sc]
-3.9 -6.2 84 -6 -6 по сезону 1005.3 998.9 -3.9
06 22.03 СЗ 2 20 км 9/8 1000 м
[Sc As trans]
-1.2 -5.0 75 -5 -5 тепло 1008.5 1002.1 -4.1 41
09 22.03 СЗ 5-8
{13}
20 км 3/0
[Ac trans Ci fib]
+1.4 -6.3 57 -4 -2 по сезону 1011.8 1005.5
12 22.03 З 7-11
{12}
20 км ясно +2.3 -7.6 48 -3 -3 по сезону 1012.9 1006.6
15 22.03 ЮЗ 6-9
{13}
20 км позёмок ясно +2.4 -8.0 46 -3 -3 по сезону 1012.9 1006.6
18 22.03 ЮЗ 6-10
{13}
10 км позёмок 3/0
[Ci fib]
+0.1 -7.8 55 -6 -6 по сезону 1012.3 1005.9 +3.3
21 22.03 ЮЗ 9-13
{14}
10 км позёмок 9/0
[Ac As Ci]
-0.5 -7.3 60 -8 -8 по сезону 1009.6 1003.2
00 23.03 Ю 8-11
{13}
10 км позёмок 10/0
[Ac und]
-0.8 -7.9 59 -8 -8 по сезону 1005.4 999.1
03 23.03 Ю 9-14
{15}
10 км сильный позёмок 10/0
[Ac As]
-0.1 -7.5 57 -7 -7 по сезону 999.2 992.9 -0.9
06 23.03 Ю 11-18
{18}
10 км метель {снег} 10/6 600 м
[Cb cap Ac As]
-0.9 -4.9 74 -9 -9 по сезону 994.8 988.5 -1.6 0.0 40
09 23.03 Ю 9-14
{17}
1000 м ливневой снег {метель} 10/10 600 м
[Cb cap]
-1.6 -2.7 92 -10 -10 по сезону 991.2 984.9
12 23.03 Ю 7-11
{13}
4000 м слаб. ливневой снег {метель} 10/10 600 м
[Cb cap]
-1.0 -1.7 95 -9 -9 по сезону 986.5 980.3
15 23.03 Ю 6-10
{12}
2000 м ливневой снег {метель} 10/10 600 м
[Cb cap]
-0.1 -0.4 98 -7 -7 по сезону 983.5 977.3 2
18 23.03 ЮЗ 8-13
{13}
10 км слаб. ливневой снег {метель} 9/8 300 м
[Cb cap Ac trans]
+1.4 +0.2 92 -6 -6 по сезону 982.8 976.7 +1.4 3
21 23.03 Ю 6-9
{13}
10 км {ливн. осадки} 8/8 300 м
[Cb cap]
+1.5 -0.5 87 -5 -5 по сезону 981.7 975.6
00 24.03 ЮЗ 5 10 км {ливн. осадки} 1/0
[Ac lent]
+0.2 -2.2 84 -6 -6 по сезону 981.3 975.1
03 24.03 Ю 6 10 км 4/0
[Ac lent]
-0.8 -4.2 78 -7 -7 по сезону 981.2 975.0 -0.9 0.6
06 24.03 Ю 5 20 км 3/0
[Ac lent]
-0.7 -5.0 73 -7 -6 по сезону 981.0 974.8 -1.7 0.0 42
09 24.03 Ю 4-6
{10}
20 км 8/6 1000 м
[Sc Ac lent]
+0.9 -4.0 70 -4 -4 по сезону 982.2 976.1
12 24.03 ЮЗ 3 20 км 8/6 600 м
[Cb cap Ac lent]
+1.3 -3.6 70 -3 -2 по сезону 984.1 978.0
15 24.03 З 2 20 км 4/1 1000 м
[Sc Ac lent]
+1.0 -3.8 70 -2 -2 тепло 986.0 979.8
18 24.03 СВ 1 10 км 9/8 600 м
[Cb cap Ac trans]
-0.7 -4.4 76 -3 -3 тепло 988.6 982.4 +2.5
21 24.03 Ю 2 10 км {ливн. осадки} 8/8 600 м
[Cb cap Ac lent]
-1.3 -3.8 83 -5 -5 по сезону 990.5 984.3
00 25.03 СЗ 1 10 км {ливн. осадки} 8/8 600 м
[Cb cap Ac lent]
-1.2 -4.3 79 -3 -3 тепло 992.5 986.2
03 25.03 С 8-12
{12}
10 км {ливн. осадки} 9/8 600 м
[Cb cap Ac lent]
-0.1 -3.6 77 -7 -7 по сезону 994.8 988.6 -1.8 0.4
06 25.03 С 7-10
{13}
20 км {ливн. осадки} 9/8 1000 м
[Sc Ac trans]
-1.1 -5.4 73 -8 -8 по сезону 997.8 991.5 -1.8 0.4 39
09 25.03 С 7-10
{11}
20 км 6/5 600 м
[Sc Ac trans Ci fib]
-0.6 -8.3 56 -7 -7 по сезону 999.8 993.5
12 25.03 С 6-8
{11}
20 км слаб. ливневой снег 9/8 600 м
[Cb cap Ac trans]
-1.5 -5.5 74 -8 -8 по сезону 1001.6 995.3
15 25.03 СЗ 3 20 км {ливн. осадки} 9/8 600 м
[Cb cap Ac trans]
-1.1 -7.8 60 -5 -5 по сезону 1002.4 996.1 0.0
18 25.03 СВ 2 10 км {ливн. осадки} 4/0
[Ac lent Ci fib]
-4.0 -9.4 66 -8 -8 по сезону 1002.8 996.4 +0.2 0.0
21 25.03 ЮЗ 1 10 км 3/0
[Ac trans]
-6.5 -9.4 80 -9 -9 по сезону 1003.7 997.3
00 26.03 ЮЗ 4 10 км 3/0
[Ac trans]
-9.8 -11.6 87 -17 -17 холодно 1004.4 997.9
03 26.03 ЮЗ 4 10 км 3/0
[Ac trans]
-11.5 -13.1 88 -19 -19 холодно 1005.4 998.8 -11.6 0.0
06 26.03 Ю 2 50 км 4/0
[Ac lent Ci fib]
-11.0 -13.7 80 -16 -14 прохладно 1006.2 999.6 -12.4 39
09 26.03 ЮЗ 1 20 км ясно -4.6 -11.1 60 -6 -2 по сезону 1006.8 1000.4
12 26.03 СЗ 3 50 км 3/0
[Ac lent]
-1.1 -7.0 64 -6 -4 по сезону 1007.7 1001.3
15 26.03 З 3 50 км ясно -1.6 -7.5 64 -6 -6 по сезону 1008.5 1002.1
18 26.03 З 6 10 км 8/1 600 м
[Sc Ac trans]
-3.1 -7.8 70 -10 -10 по сезону 1008.8 1002.4 -0.8

 

Местоположение метеостанции Мурманск (Мурманская область, Россия): широта 68.97 долгота 33.05 высота над уровнем моря 51 м.

В архиве по умолчанию представлена погода в Мурманске за последнюю неделю. Архивные данные за месяц целиком и за предыдущие месяцы, начиная с января 2011 года, Вы можете получить, выбрав интересующий диапазон дат из раскрывающегося списка и нажав кнопку "Ввод!".


*Определитесь, кто Вы:
робот инопланетянин человек

Внимание! Время в таблицах - всемирное. Для получения местного времени необходимо прибавить поправку, которая равна 3 ч.

Смотрите также архив погоды в соседних городах и на ближайших метеорологических станциях:

Погода в Североморске (Мурманская область, Россия) (20 км)
Погода в Полярном (Мурманская область, Россия) (31 км)
Погода в Ура-Губе (Мурманская область, Россия) (36 км)
Погода в Мурманске аэропорт (Мурманская область, Россия) (42 км)
Погода в Падуне (Мурманская область, Россия) (63 км)
Погода в Пулозере (Мурманская область, Россия) (70 км)
Погода в Перевале (Мурманская область, Россия) (70 км)
Погода в Цып-Наволоке (Мурманская область, Россия) (85 км)
Погода в Териберке (Мурманская область, Россия) (86 км)
Погода в Порту Лиинахамари (Мурманская область, Россия) (99 км)

Пояснения к столбцам:

Ветер - указаны скорость ветра в м/с - средняя за 10 мин, порывы в срок и между сроками (в фигурных скобках) и направление, откуда дует ветер: С - северный, СВ - северо-восточный, В - восточный, ЮВ - юго-восточный, Ю - южный, ЮЗ - юго-западный, З - западный, СЗ - северо-западный.
Видимость - горизонтальная дальность видимости в метрах или километрах. При видимости от 1 до 10 км при отсутствии осадков обычно наблюдается дымка, при ухудшении видимости до 1 км и менее - туман. В сухую погоду видимость может ухудшаться дымом, пылью или мглою.
Явления - указаны атмосферные явления, наблюдавшиеся в срок или в последний час перед сроком; фигурными скобками обозначены явления, наблюдавшиеся между сроками (за 1-3 часа до срока); квадратными скобками обозначены град или гололедные отложения с указанием их диаметра в мм.
Облачность - указаны через наклонную черту общая и нижняя облачность в баллах и высота нижней границы облаков в метрах; квадратными скобками обозначены формы облаков: Ci - перистые, Cs - перисто-слоистые, Cc - перисто-кучевые, Ac - высококучевые, As - высокослоистые, Sc - слоисто-кучевые, Ns - слоисто-дождевые, Cu - кучевые, Cb - кучево-дождевые. Подробнее классификацию облаков см. в Атласе облаков (PDF).
T - Температура воздуха - температура, измеренная на высоте 2 м над землей.
Td - Температура точки росы - температура, при понижении до которой содержащийся в воздухе водяной пар достигнет насыщения.
f - Относительная влажность воздуха - влажноcть воздуха, измеренная на высоте 2 м над землей.
Te - Эффективная температура - температура, которую ощущает одетый по сезону человек в тени. Характеристика душности погоды. При расчете учитывается влияние влажности воздуха и скорости ветра на теплоощущения человека.
Tes - Эффективная температура на солнце - температура, которую ощущает человек, с поправкой на солнечный нагрев. Характеристика знойности погоды. Зависит от высоты солнца над горизонтом, облачности и скорости ветра. Ночью, в пасмурную погоду, а также при ветре 12 м/с и более поправка равна нулю.
P - Атмосферное давление - приведенное к уровню моря атмосферное давление.
Po - Атмосферное давление - измеренное на уровне метеостанции атмосферное давление.
Tmin - Минимальная температура - минимум температуры воздуха на высоте 2 м над землей.
Tmax - Максимальная температура - максимум температуры воздуха на высоте 2 м над землей.
R - Количество осадков - Количество выпавших осадков за период времени, мм. При наведении курсора мыши на число - период времени, за который выпало указанное количество осадков.
R24 - Количество осадков - Количество выпавших осадков за 24 часа, мм.
S - Снежный покров - Высота снежного покрова, см. При наведении курсора мыши на число - состояние снежного покрова и степень покрытия местности в баллах.